Time,TemperatureF,DewpointF,PressureIn,WindDirection,WindDirectionDegrees,WindSpeedMPH,WindSpeedGustMPH,Humidity,HourlyPrecipIn,Conditions,Clouds,dailyrainin,SolarRadiationWatts/m^2,SoftwareType,DateUTC
2013-05-25 00:00:00,46.0,32.5,30.17,WNW,291,2.0,2.0,59,0.00,,,0.00,0,Wunderground v.1.15,2013-05-25 04:00:00,
2013-05-25 00:10:00,45.9,32.4,30.17,West,277,2.0,2.0,59,0.00,,,0.00,0,Wunderground v.1.15,2013-05-25 04:10:00,
2013-05-25 00:20:00,45.5,32.4,30.17,West,280,1.0,1.0,60,0.00,,,0.00,0,Wunderground v.1.15,2013-05-25 04:20:00,
2013-05-25 00:30:00,45.2,32.5,30.17,WNW,293,1.0,1.0,61,0.00,,,0.00,0,Wunderground v.1.15,2013-05-25 04:30:00,
2013-05-25 00:40:00,45.0,32.8,30.18,NW,325,1.0,1.0,62,0.00,,,0.00,0,Wunderground v.1.15,2013-05-25 04:40:00,
2013-05-25 00:50:00,45.0,32.8,30.18,West,268,1.0,1.0,62,0.00,,,0.00,0,Wunderground v.1.15,2013-05-25 04:50:00,
2013-05-25 01:00:00,44.9,32.7,30.18,West,259,1.0,2.0,62,0.00,,,0.00,0,Wunderground v.1.15,2013-05-25 05:00:00,
2013-05-25 01:10:00,44.9,32.7,30.18,West,280,1.0,1.0,62,0.00,,,0.00,0,Wunderground v.1.15,2013-05-25 05:10:00,
2013-05-25 01:20:00,44.6,32.8,30.17,NW,307,0.0,0.0,63,0.00,,,0.00,0,Wunderground v.1.15,2013-05-25 05:20:00,
2013-05-25 01:30:00,44.6,32.8,30.17,WNW,303,0.0,0.0,63,0.00,,,0.00,0,Wunderground v.1.15,2013-05-25 05:30:00,
2013-05-25 01:40:00,44.6,32.8,30.17,West,271,1.0,1.0,63,0.00,,,0.00,0,Wunderground v.1.15,2013-05-25 05:40:00,
2013-05-25 01:50:00,44.6,33.2,30.17,NW,317,0.0,0.0,64,0.00,,,0.00,0,Wunderground v.1.15,2013-05-25 05:50:00,
2013-05-25 02:00:00,44.7,33.3,30.17,NW,315,0.0,0.0,64,0.00,,,0.00,0,Wunderground v.1.15,2013-05-25 06:00:00,
2013-05-25 02:10:00,44.7,33.3,30.17,WNW,289,0.0,0.0,64,0.00,,,0.00,0,Wunderground v.1.15,2013-05-25 06:10:00,
2013-05-25 02:20:00,44.8,33.4,30.16,West,277,0.0,0.0,64,0.00,,,0.00,0,Wunderground v.1.15,2013-05-25 06:20:00,
2013-05-25 02:30:00,44.6,33.6,30.16,West,269,0.0,1.0,65,0.00,,,0.00,0,Wunderground v.1.15,2013-05-25 06:30:00,
2013-05-25 02:40:00,44.5,33.5,30.16,West,259,0.0,2.0,65,0.00,,,0.00,0,Wunderground v.1.15,2013-05-25 06:40:00,
2013-05-25 02:50:00,44.4,33.4,30.16,WSW,255,1.0,1.0,65,0.00,,,0.00,0,Wunderground v.1.15,2013-05-25 06:50:00,
2013-05-25 03:00:00,44.4,33.4,30.16,West,259,2.0,3.0,65,0.00,,,0.00,0,Wunderground v.1.15,2013-05-25 07:00:00,
2013-05-25 03:10:00,44.4,33.7,30.16,West,266,2.0,2.0,66,0.00,,,0.00,0,Wunderground v.1.15,2013-05-25 07:10:00,
2013-05-25 03:20:00,44.0,33.7,30.16,WNW,294,1.0,1.0,67,0.00,,,0.00,0,Wunderground v.1.15,2013-05-25 07:20:00,
2013-05-25 03:30:00,43.9,33.6,30.16,West,274,1.0,1.0,67,0.00,,,0.00,0,Wunderground v.1.15,2013-05-25 07:30:00,
2013-05-25 03:40:00,44.0,33.7,30.16,West,259,1.0,1.0,67,0.00,,,0.00,0,Wunderground v.1.15,2013-05-25 07:40:00,
2013-05-25 03:50:00,44.1,33.5,30.16,West,260,1.0,1.0,66,0.00,,,0.00,0,Wunderground v.1.15,2013-05-25 07:50:00,
2013-05-25 04:00:00,44.1,33.8,30.17,West,261,1.0,1.0,67,0.00,,,0.00,0,Wunderground v.1.15,2013-05-25 08:00:00,
2013-05-25 04:10:00,44.1,33.8,30.17,West,271,1.0,1.0,67,0.00,,,0.00,0,Wunderground v.1.15,2013-05-25 08:10:00,
2013-05-25 04:20:00,44.0,34.1,30.18,West,261,2.0,3.0,68,0.00,,,0.00,0,Wunderground v.1.15,2013-05-25 08:20:00,
2013-05-25 04:30:00,43.8,33.9,30.18,West,281,1.0,1.0,68,0.00,,,0.00,0,Wunderground v.1.15,2013-05-25 08:30:00,
2013-05-25 04:40:00,43.8,33.9,30.18,West,273,1.0,2.0,68,0.00,,,0.00,0,Wunderground v.1.15,2013-05-25 08:40:00,
2013-05-25 04:50:00,43.7,34.2,30.18,West,265,2.0,2.0,69,0.00,,,0.00,0,Wunderground v.1.15,2013-05-25 08:50:00,
2013-05-25 05:00:00,43.7,34.2,30.17,West,278,2.0,2.0,69,0.00,,,0.00,0,Wunderground v.1.15,2013-05-25 09:00:00,
2013-05-25 05:10:00,43.6,34.1,30.17,WNW,295,2.0,2.0,69,0.00,,,0.00,0,Wunderground v.1.15,2013-05-25 09:10:00,
2013-05-25 05:20:00,43.5,34.4,30.17,West,268,2.0,2.0,70,0.00,,,0.00,0,Wunderground v.1.15,2013-05-25 09:20:00,
2013-05-25 05:30:00,43.4,34.3,30.17,West,266,2.0,5.0,70,0.00,,,0.00,0,Wunderground v.1.15,2013-05-25 09:30:00,
2013-05-25 05:40:00,43.1,34.7,30.17,WSW,255,2.0,3.0,72,0.00,,,0.00,0,Wunderground v.1.15,2013-05-25 09:40:00,
2013-05-25 05:50:00,43.0,34.6,30.17,WSW,257,2.0,2.0,72,0.00,,,0.00,0,Wunderground v.1.15,2013-05-25 09:50:00,
2013-05-25 06:00:00,43.0,34.6,30.17,West,262,2.0,2.0,72,0.00,,,0.00,9,Wunderground v.1.15,2013-05-25 10:00:00,
2013-05-25 06:10:00,43.3,34.5,30.17,West,259,1.0,1.0,71,0.00,,,0.00,18,Wunderground v.1.15,2013-05-25 10:10:00,
2013-05-25 06:20:00,43.5,34.7,30.18,WSW,246,0.0,0.0,71,0.00,,,0.00,28,Wunderground v.1.15,2013-05-25 10:20:00,
2013-05-25 06:30:00,43.8,35.0,30.19,West,269,0.0,0.0,71,0.00,,,0.00,49,Wunderground v.1.15,2013-05-25 10:30:00,
2013-05-25 06:40:00,44.2,35.0,30.19,West,280,1.0,1.0,70,0.00,,,0.00,70,Wunderground v.1.15,2013-05-25 10:40:00,
2013-05-25 06:50:00,44.7,35.5,30.19,West,263,1.0,4.0,70,0.00,,,0.00,100,Wunderground v.1.15,2013-05-25 10:50:00,
2013-05-25 07:00:00,45.1,35.5,30.20,West,259,2.0,3.0,69,0.00,,,0.00,135,Wunderground v.1.15,2013-05-25 11:00:00,
2013-05-25 07:10:00,45.6,35.6,30.20,WNW,291,1.0,2.0,68,0.00,,,0.00,171,Wunderground v.1.15,2013-05-25 11:10:00,
2013-05-25 07:20:00,46.1,35.7,30.20,West,269,2.0,4.0,67,0.00,,,0.00,206,Wunderground v.1.15,2013-05-25 11:20:00,
2013-05-25 07:30:00,46.5,36.5,30.20,NNW,330,2.0,2.0,68,0.00,,,0.00,241,Wunderground v.1.15,2013-05-25 11:30:00,
2013-05-25 07:40:00,46.7,35.9,30.20,West,259,3.0,3.0,66,0.00,,,0.00,272,Wunderground v.1.15,2013-05-25 11:40:00,
2013-05-25 07:50:00,47.2,36.8,30.21,West,260,1.0,4.0,67,0.00,,,0.00,302,Wunderground v.1.15,2013-05-25 11:50:00,
2013-05-25 08:00:00,47.5,36.7,30.21,NW,315,2.0,2.0,66,0.00,,,0.00,339,Wunderground v.1.15,2013-05-25 12:00:00,
2013-05-25 08:10:00,47.7,36.5,30.21,West,260,3.0,6.0,65,0.00,,,0.00,362,Wunderground v.1.15,2013-05-25 12:10:00,
2013-05-25 08:20:00,48.4,37.2,30.20,NW,323,2.0,3.0,65,0.00,,,0.00,406,Wunderground v.1.15,2013-05-25 12:20:00,
2013-05-25 08:30:00,48.7,37.1,30.20,WNW,294,2.0,7.0,64,0.00,,,0.00,452,Wunderground v.1.15,2013-05-25 12:30:00,
2013-05-25 08:40:00,49.1,37.0,30.20,WNW,288,4.0,4.0,63,0.00,,,0.00,476,Wunderground v.1.15,2013-05-25 12:40:00,
2013-05-25 08:50:00,49.9,38.6,30.19,WSW,250,2.0,2.0,65,0.00,,,0.00,510,Wunderground v.1.15,2013-05-25 12:50:00,
2013-05-25 09:00:00,50.0,37.5,30.19,West,259,4.0,8.0,62,0.00,,,0.00,527,Wunderground v.1.15,2013-05-25 13:00:00,
2013-05-25 09:10:00,50.1,38.0,30.19,West,269,4.0,9.0,63,0.00,,,0.00,577,Wunderground v.1.15,2013-05-25 13:10:00,
2013-05-25 09:20:00,50.8,37.4,30.19,NW,322,5.0,5.0,60,0.00,,,0.00,628,Wunderground v.1.15,2013-05-25 13:20:00,
2013-05-25 09:30:00,51.6,38.6,30.19,NW,311,5.0,5.0,61,0.00,,,0.00,693,Wunderground v.1.15,2013-05-25 13:30:00,
2013-05-25 09:40:00,51.9,38.0,30.18,WNW,288,4.0,4.0,59,0.00,,,0.00,722,Wunderground v.1.15,2013-05-25 13:40:00,
2013-05-25 09:50:00,52.3,38.8,30.18,WNW,300,5.0,5.0,60,0.00,,,0.00,728,Wunderground v.1.15,2013-05-25 13:50:00,
2013-05-25 10:00:00,53.0,38.2,30.18,West,275,5.0,7.0,57,0.00,,,0.00,710,Wunderground v.1.15,2013-05-25 14:00:00,
2013-05-25 10:10:00,53.0,37.7,30.17,West,275,7.0,7.0,56,0.00,,,0.00,758,Wunderground v.1.15,2013-05-25 14:10:00,
2013-05-25 10:20:00,54.1,39.2,30.17,West,281,4.0,6.0,57,0.00,,,0.00,793,Wunderground v.1.15,2013-05-25 14:20:00,
2013-05-25 10:30:00,55.0,39.6,30.17,WNW,287,4.0,4.0,56,0.00,,,0.00,824,Wunderground v.1.15,2013-05-25 14:30:00,
2013-05-25 10:40:00,55.6,40.1,30.17,NW,304,3.0,3.0,56,0.00,,,0.00,889,Wunderground v.1.15,2013-05-25 14:40:00,
2013-05-25 10:50:00,54.3,38.5,30.17,West,281,5.0,5.0,55,0.00,,,0.00,190,Wunderground v.1.15,2013-05-25 14:50:00,
2013-05-25 11:00:00,54.2,37.9,30.17,West,263,3.0,3.0,54,0.00,,,0.00,223,Wunderground v.1.15,2013-05-25 15:00:00,
2013-05-25 11:10:00,56.1,40.1,30.17,WNW,294,3.0,6.0,55,0.00,,,0.00,875,Wunderground v.1.15,2013-05-25 15:10:00,
2013-05-25 11:20:00,56.8,38.9,30.16,West,259,4.0,7.0,51,0.00,,,0.00,888,Wunderground v.1.15,2013-05-25 15:20:00,
2013-05-25 11:30:00,57.1,40.1,30.16,WNW,290,5.0,5.0,53,0.00,,,0.00,905,Wunderground v.1.15,2013-05-25 15:30:00,
2013-05-25 11:40:00,57.0,38.5,30.17,NNW,332,6.0,6.0,50,0.00,,,0.00,939,Wunderground v.1.15,2013-05-25 15:40:00,
2013-05-25 11:50:00,57.7,39.7,30.16,WNW,292,6.0,6.0,51,0.00,,,0.00,932,Wunderground v.1.15,2013-05-25 15:50:00,
2013-05-25 12:00:00,58.8,39.7,30.15,WNW,297,5.0,6.0,49,0.00,,,0.00,944,Wunderground v.1.15,2013-05-25 16:00:00,
2013-05-25 12:10:00,59.0,37.7,30.14,WNW,298,6.0,6.0,45,0.00,,,0.00,958,Wunderground v.1.15,2013-05-25 16:10:00,
2013-05-25 12:20:00,59.0,38.8,30.14,WSW,242,7.0,9.0,47,0.00,,,0.00,962,Wunderground v.1.15,2013-05-25 16:20:00,
2013-05-25 12:30:00,59.8,39.0,30.14,WNW,292,5.0,5.0,46,0.00,,,0.00,970,Wunderground v.1.15,2013-05-25 16:30:00,
2013-05-25 12:40:00,60.0,38.6,30.14,WNW,284,6.0,7.0,45,0.00,,,0.00,990,Wunderground v.1.15,2013-05-25 16:40:00,
2013-05-25 12:50:00,60.8,38.7,30.14,West,273,5.0,8.0,44,0.00,,,0.00,1013,Wunderground v.1.15,2013-05-25 16:50:00,
2013-05-25 13:00:00,61.3,41.4,30.14,WSW,243,4.0,15.0,48,0.00,,,0.00,983,Wunderground v.1.15,2013-05-25 17:00:00,
2013-05-25 13:10:00,61.6,40.0,30.13,WNW,283,5.0,5.0,45,0.00,,,0.00,981,Wunderground v.1.15,2013-05-25 17:10:00,
2013-05-25 13:20:00,61.4,39.9,30.13,West,263,4.0,9.0,45,0.00,,,0.00,997,Wunderground v.1.15,2013-05-25 17:20:00,
2013-05-25 13:30:00,62.0,41.5,30.12,WSW,248,5.0,5.0,47,0.00,,,0.00,1067,Wunderground v.1.15,2013-05-25 17:30:00,
2013-05-25 13:40:00,61.3,39.2,30.13,NNW,335,3.0,3.0,44,0.00,,,0.00,181,Wunderground v.1.15,2013-05-25 17:40:00,
2013-05-25 13:50:00,62.3,38.9,30.12,NW,311,5.0,6.0,42,0.00,,,0.00,983,Wunderground v.1.15,2013-05-25 17:50:00,
2013-05-25 14:00:00,63.0,39.5,30.11,NW,311,6.0,6.0,42,0.00,,,0.00,967,Wunderground v.1.15,2013-05-25 18:00:00,
2013-05-25 14:10:00,63.4,38.6,30.11,West,261,5.0,5.0,40,0.00,,,0.00,958,Wunderground v.1.15,2013-05-25 18:10:00,
2013-05-25 14:20:00,63.0,38.3,30.10,West,263,5.0,5.0,40,0.00,,,0.00,949,Wunderground v.1.15,2013-05-25 18:20:00,
2013-05-25 14:30:00,64.2,39.4,30.11,West,275,4.0,5.0,40,0.00,,,0.00,937,Wunderground v.1.15,2013-05-25 18:30:00,
2013-05-25 14:40:00,63.4,38.6,30.11,NW,311,6.0,6.0,40,0.00,,,0.00,933,Wunderground v.1.15,2013-05-25 18:40:00,
2013-05-25 14:50:00,63.9,37.8,30.11,WSW,257,5.0,7.0,38,0.00,,,0.00,907,Wunderground v.1.15,2013-05-25 18:50:00,
2013-05-25 15:00:00,63.9,39.1,30.11,NW,306,5.0,5.0,40,0.00,,,0.00,888,Wunderground v.1.15,2013-05-25 19:00:00,
2013-05-25 15:10:00,64.0,38.5,30.11,NW,311,5.0,5.0,39,0.00,,,0.00,872,Wunderground v.1.15,2013-05-25 19:10:00,
2013-05-25 15:20:00,64.2,40.6,30.10,NNW,340,5.0,5.0,42,0.00,,,0.00,863,Wunderground v.1.15,2013-05-25 19:20:00,
2013-05-25 15:30:00,64.1,38.6,30.11,West,275,7.0,7.0,39,0.00,,,0.00,861,Wunderground v.1.15,2013-05-25 19:30:00,
2013-05-25 15:40:00,64.1,38.6,30.11,WNW,282,6.0,9.0,39,0.00,,,0.00,812,Wunderground v.1.15,2013-05-25 19:40:00,
2013-05-25 15:50:00,64.5,38.3,30.11,NNW,336,8.0,8.0,38,0.00,,,0.00,796,Wunderground v.1.15,2013-05-25 19:50:00,
2013-05-25 16:00:00,64.7,38.5,30.10,West,281,5.0,5.0,38,0.00,,,0.00,777,Wunderground v.1.15,2013-05-25 20:00:00,
2013-05-25 16:10:00,65.1,39.5,30.10,NW,323,3.0,3.0,39,0.00,,,0.00,796,Wunderground v.1.15,2013-05-25 20:10:00,
2013-05-25 16:20:00,65.9,38.9,30.09,WNW,294,4.0,4.0,37,0.00,,,0.00,747,Wunderground v.1.15,2013-05-25 20:20:00,
2013-05-25 16:30:00,65.7,39.4,30.09,West,269,5.0,14.0,38,0.00,,,0.00,703,Wunderground v.1.15,2013-05-25 20:30:00,
2013-05-25 16:40:00,65.2,39.6,30.09,WSW,248,4.0,7.0,39,0.00,,,0.00,661,Wunderground v.1.15,2013-05-25 20:40:00,
2013-05-25 16:50:00,65.3,39.7,30.09,West,263,5.0,5.0,39,0.00,,,0.00,707,Wunderground v.1.15,2013-05-25 20:50:00,
2013-05-25 17:00:00,66.0,41.0,30.09,WNW,286,4.0,4.0,40,0.00,,,0.00,645,Wunderground v.1.15,2013-05-25 21:00:00,
2013-05-25 17:10:00,65.6,38.6,30.09,WNW,297,7.0,7.0,37,0.00,,,0.00,575,Wunderground v.1.15,2013-05-25 21:10:00,
2013-05-25 17:20:00,65.2,38.9,30.09,NW,321,5.0,5.0,38,0.00,,,0.00,533,Wunderground v.1.15,2013-05-25 21:20:00,
2013-05-25 17:30:00,65.1,38.2,30.09,NW,313,5.0,12.0,37,0.00,,,0.00,515,Wunderground v.1.15,2013-05-25 21:30:00,
2013-05-25 17:40:00,64.9,39.3,30.09,West,263,5.0,5.0,39,0.00,,,0.00,469,Wunderground v.1.15,2013-05-25 21:40:00,
2013-05-25 17:50:00,64.9,38.7,30.09,WNW,295,5.0,5.0,38,0.00,,,0.00,425,Wunderground v.1.15,2013-05-25 21:50:00,
2013-05-25 18:00:00,64.7,38.5,30.09,WNW,298,5.0,5.0,38,0.00,,,0.00,353,Wunderground v.1.15,2013-05-25 22:00:00,
2013-05-25 18:10:00,64.5,38.3,30.09,NNW,329,5.0,10.0,38,0.00,,,0.00,54,Wunderground v.1.15,2013-05-25 22:10:00,
2013-05-25 18:20:00,64.3,38.1,30.08,NW,304,5.0,6.0,38,0.00,,,0.00,292,Wunderground v.1.15,2013-05-25 22:20:00,
2013-05-25 18:30:00,63.8,37.7,30.09,WNW,294,5.0,5.0,38,0.00,,,0.00,88,Wunderground v.1.15,2013-05-25 22:30:00,
2013-05-25 18:40:00,63.8,37.7,30.09,WNW,298,6.0,6.0,38,0.00,,,0.00,264,Wunderground v.1.15,2013-05-25 22:40:00,
2013-05-25 18:50:00,63.6,37.5,30.09,NW,304,5.0,5.0,38,0.00,,,0.00,51,Wunderground v.1.15,2013-05-25 22:50:00,
2013-05-25 19:00:00,63.3,37.9,30.09,WSW,258,5.0,9.0,39,0.00,,,0.00,93,Wunderground v.1.15,2013-05-25 23:00:00,
2013-05-25 19:10:00,63.1,37.7,30.09,WNW,288,4.0,4.0,39,0.00,,,0.00,42,Wunderground v.1.15,2013-05-25 23:10:00,
2013-05-25 19:20:00,62.9,37.5,30.10,WNW,282,4.0,4.0,39,0.00,,,0.00,35,Wunderground v.1.15,2013-05-25 23:20:00,
2013-05-25 19:30:00,62.6,37.3,30.10,NW,306,4.0,4.0,39,0.00,,,0.00,32,Wunderground v.1.15,2013-05-25 23:30:00,
2013-05-25 19:40:00,62.3,37.0,30.10,WNW,289,4.0,4.0,39,0.00,,,0.00,25,Wunderground v.1.15,2013-05-25 23:40:00,
2013-05-25 19:50:00,62.0,36.7,30.11,NW,311,4.0,4.0,39,0.00,,,0.00,21,Wunderground v.1.15,2013-05-25 23:50:00,
2013-05-25 20:00:00,61.5,36.3,30.11,NW,317,3.0,3.0,39,0.00,,,0.00,16,Wunderground v.1.15,2013-05-26 00:00:00,
2013-05-25 20:10:00,60.9,36.4,30.10,NNW,339,1.0,2.0,40,0.00,,,0.00,11,Wunderground v.1.15,2013-05-26 00:10:00,
2013-05-25 20:20:00,60.3,36.5,30.11,NNW,339,0.0,0.0,41,0.00,,,0.00,5,Wunderground v.1.15,2013-05-26 00:20:00,
2013-05-25 20:30:00,59.8,36.0,30.10,NW,323,1.0,2.0,41,0.00,,,0.00,0,Wunderground v.1.15,2013-05-26 00:30:00,
2013-05-25 20:40:00,59.3,35.6,30.11,NNW,332,0.0,0.0,41,0.00,,,0.00,0,Wunderground v.1.15,2013-05-26 00:40:00,
2013-05-25 20:50:00,58.8,35.7,30.11,NNW,331,0.0,0.0,42,0.00,,,0.00,0,Wunderground v.1.15,2013-05-26 00:50:00,
2013-05-25 21:00:00,58.4,36.0,30.11,North,355,0.0,0.0,43,0.00,,,0.00,0,Wunderground v.1.15,2013-05-26 01:00:00,
2013-05-25 21:10:00,58.1,35.7,30.12,North,355,0.0,0.0,43,0.00,,,0.00,0,Wunderground v.1.15,2013-05-26 01:10:00,
2013-05-25 21:20:00,57.7,35.3,30.12,NNW,334,1.0,1.0,43,0.00,,,0.00,0,Wunderground v.1.15,2013-05-26 01:20:00,
2013-05-25 21:30:00,57.7,34.7,30.12,WNW,302,1.0,1.0,42,0.00,,,0.00,0,Wunderground v.1.15,2013-05-26 01:30:00,
2013-05-25 21:40:00,58.2,34.6,30.13,WNW,303,3.0,3.0,41,0.00,,,0.00,0,Wunderground v.1.15,2013-05-26 01:40:00,
2013-05-25 21:50:00,58.5,34.2,30.13,NW,316,4.0,4.0,40,0.00,,,0.00,0,Wunderground v.1.15,2013-05-26 01:50:00,
2013-05-25 22:00:00,58.0,34.4,30.14,NW,304,2.0,2.0,41,0.00,,,0.00,0,Wunderground v.1.15,2013-05-26 02:00:00,
2013-05-25 22:10:00,57.6,34.7,30.14,NW,317,2.0,2.0,42,0.00,,,0.00,0,Wunderground v.1.15,2013-05-26 02:10:00,
2013-05-25 22:20:00,57.0,35.3,30.14,NW,323,1.0,1.0,44,0.00,,,0.00,0,Wunderground v.1.15,2013-05-26 02:20:00,
2013-05-25 22:30:00,56.6,34.9,30.14,NW,313,1.0,1.0,44,0.00,,,0.00,0,Wunderground v.1.15,2013-05-26 02:30:00,
2013-05-25 22:40:00,56.1,35.0,30.14,WNW,293,0.0,0.0,45,0.00,,,0.00,0,Wunderground v.1.15,2013-05-26 02:40:00,
2013-05-25 22:50:00,55.8,35.3,30.15,West,267,0.0,0.0,46,0.00,,,0.00,0,Wunderground v.1.15,2013-05-26 02:50:00,
2013-05-25 23:00:00,55.3,35.4,30.15,West,279,0.0,0.0,47,0.00,,,0.00,0,Wunderground v.1.15,2013-05-26 03:00:00,
2013-05-25 23:10:00,55.3,35.9,30.15,NW,312,0.0,1.0,48,0.00,,,0.00,0,Wunderground v.1.15,2013-05-26 03:10:00,
2013-05-25 23:20:00,55.3,35.9,30.15,NW,304,1.0,1.0,48,0.00,,,0.00,0,Wunderground v.1.15,2013-05-26 03:20:00,
2013-05-25 23:30:00,55.5,36.1,30.15,West,281,1.0,1.0,48,0.00,,,0.00,0,Wunderground v.1.15,2013-05-26 03:30:00,
2013-05-25 23:40:00,55.3,36.5,30.15,WNW,292,1.0,1.0,49,0.00,,,0.00,0,Wunderground v.1.15,2013-05-26 03:40:00,
2013-05-25 23:50:00,55.1,36.3,30.15,NW,319,0.0,1.0,49,0.00,,,0.00,0,Wunderground v.1.15,2013-05-26 03:50:00,